Regional Weather Roundup
Issued by NWS State College, PA

Home | Current Version | Previous Version | Graphics & Text | Print | Product List | Glossary Off
Versions: 1 2 3 4 5 6 7 8 9 10 11 12 13 14 15 16 17 18 19 20 21 22 23 24 25 26 27 28 29 30 31 32 33 34 35 36 37 38 39 40 41 42 43 44 45 46 47 48 49 50

000
ASUS41 KCTP 220503
RWRCTP

REGIONAL WEATHER ROUNDUP
NATIONAL WEATHER SERVICE STATE COLLEGE PA
1200 AM EST SAT NOV 22 2014

Note: "fair" indicates few or no clouds below 12,000 feet with no
significant weather and/or obstructions to visibility.

* = STATION THAT DOES NOT REPORT PRECIPITATION /E.G. RAIN...SNOW...ETC/
    THUNDER OR FOG.

PAZ002>004-007>009-013>016-020>023-029>032-220600-
WESTERN PENNSYLVANIA

CITY           SKY/WX    TMP DP  RH WIND       PRES   REMARKS
ERIE           PTCLDY    19   7  59 S10       30.40F WCI   7
MEADVILLE      PTCLDY    18   6  59 S6        30.37F WCI  10
FRANKLIN*      PTCLDY    14   7  73 S8        30.39S WCI   3
NEW CASTLE       N/A     12   8  84 CALM      30.42F
BEAVER COUNTY  NOT AVBL
BUTLER*        PTCLDY    12   7  79 SE3       30.42F
PITTSBURGH INT PTCLDY    18  10  71 SE3       30.41F
PITTSBURGH     PTCLDY    19   9  65 S6        30.41F WCI  11
INDIANA*       CLEAR     14  10  85 E3        30.46S
LATROBE        PTCLDY    16  10  79 CALM      30.45F
WASHINGTON CO* PTCLDY    12   9  85 CALM      30.42F
$$

PAZ004>006-010>012-017>019-024>028-033>037-041-042-045-046-049>053-220600-
CENTRAL PENNSYLVANIA

CITY           SKY/WX    TMP DP  RH WIND       PRES   REMARKS
BRADFORD       CLEAR     13   6  74 S3        30.34S
DUBOIS         PTCLDY    16   8  71 S5        30.37F WCI   9
CLEARFIELD     PTCLDY    12   8  84 CALM      30.42F
JOHNSTOWN      CLEAR     17   6  62 S6        30.36S WCI   9
ALTOONA        PTCLDY    16  10  77 CALM      30.43S
STATE COLLEGE  PTCLDY    16   8  71 CALM      30.45S
WILLIAMSPORT   CLEAR     21  11  65 CALM      30.50R
SELINSGROVE    CLEAR     17  12  80 CALM      30.52R
FT INDIANTOWN  CLEAR     24  10  55 W2        30.51S
CAPITAL CITY   CLEAR     20  12  71 SW3       30.53R
HARRISBURG     CLEAR     22  13  68 N3        30.52S
YORK           CLEAR     14  11  87 CALM      30.51F
$$

PAZ038>040-043-044-047-048-054-055-060>062-067>071-220600-
EASTERN PENNSYLVANIA

CITY           SKY/WX    TMP DP  RH WIND       PRES   REMARKS
SCRANTON       PTCLDY    23   9  55 SW3       30.45R
MOUNT POCONO   PTCLDY    15   7  70 W7        30.37F WCI   5
ALLENTOWN      CLEAR     19  10  68 SW5       30.50S WCI  12
QUAKERTOWN*    CLEAR     18  12  79 CALM      30.50S
READING        CLEAR     23  11  60 CALM      30.50S
LANCASTER      CLEAR     19  10  68 W7        30.52R WCI  10
COATESVILLE    CLEAR     21  10  63 W6        30.50S WCI  14
POTTSTOWN      CLEAR     22  10  60 CALM      30.52S
BLUE BELL      CLEAR     25  18  74 CALM      30.51S
DOYLESTOWN     CLEAR     23  10  57 CALM      30.50R
WILLOW GROVE   NOT AVBL
NORTH PHILA    CLEAR     29   8  41 W5        30.54S
PHILADELPHIA   CLEAR     30   9  41 NW3       30.55R
$$



USA.gov is the U.S. government's official web portal to all federal, state and local government web resources and services.